Deming, NM

10:58 AM MDT on May 24, 2017 (GMT -0600)
Deming Municipal

Weather History for KDMN - March, 2013

Change the Weather History Date:

Monday, March 18, 2013

  Actual Average Record
Temperature  
Mean Temperature 57 °F 52 °F  
Max Temperature 75 °F 68 °F 86 °F (2017)
Min Temperature 39 °F 35 °F 22 °F (1960)
Degree Days  
Heating Degree Days 8    
Growing Degree Days 7 (Base 50)    
Moisture  
Dew Point 13 °F    
Average Humidity 20    
Maximum Humidity 38    
Minimum Humidity 6    
Precipitation  
Precipitation 0.00 in 0.00 in 0.33 in (1964)
Month to date precipitation 0.28  
Year to date precipitation 1.48  
Sea Level Pressure  
Sea Level Pressure 29.87 in    
Wind  
Wind Speed 8 mph (West)    
Max Wind Speed 21 mph    
Max Gust Speed 30 mph    
Visibility 10 miles    
Events      
T = Trace of Precipitation, MM = Missing Value Source: NWS Daily Summary

Daily Weather History Graph

Daily Weather History Graph

Search for Another Location

Airport or City:

Trip Planner

Search our weather history database for the weather conditions in past years. The results will help you decide how hot, cold, wet, or windy it might be!

Date:

Astronomy

Mar. 18, 2013 Rise Set
Actual Time 7:16 AM MDT 7:21 PM MDT
Civil Twilight 6:52 AM MDT 7:45 PM MDT
Nautical Twilight 6:23 AM MDT 8:14 PM MDT
Astronomical Twilight 5:55 AM MDT 8:42 PM MDT
Moon 11:38 AM MDT (3/18) 1:04 AM MDT (3/18)
Length of Visible Light 12h 53m
Length of Day
12h 04m
Waxing Crescent, 41% of the Moon is Illuminated
Mar 18
Waxing Crescent
Mar 19
First Quarter
Mar 27
Full
Apr 2
Last Quarter
Apr 10
New

Hourly Weather History & Observations

Time (MDT) Temp. Windchill Dew Point Humidity Pressure Visibility Wind Dir Wind Speed Gust Speed Precip Events Conditions
12:53 AM 57.9 °F - 18.0 °F 21% 29.79 in 10.0 mi NW 8.1 mph - N/A   Clear
1:53 AM 51.1 °F - 17.1 °F 26% 29.81 in 10.0 mi SSW 4.6 mph - N/A   Clear
2:53 AM 48.9 °F - 16.0 °F 27% 29.81 in 10.0 mi West 9.2 mph - N/A   Clear
3:53 AM 45.0 °F - 15.1 °F 30% 29.83 in 10.0 mi Calm Calm - N/A   Clear
4:53 AM 43.0 °F 41.3 °F 17.1 °F 35% 29.83 in 10.0 mi WNW 3.5 mph - N/A   Clear
5:53 AM 39.9 °F 35.1 °F 15.1 °F 36% 29.86 in 10.0 mi WNW 6.9 mph - N/A   Clear
6:53 AM 39.0 °F 34.0 °F 15.1 °F 38% 29.88 in 10.0 mi West 6.9 mph - N/A   Clear
7:53 AM 46.9 °F - 17.1 °F 30% 29.91 in 10.0 mi WNW 6.9 mph - N/A   Clear
8:53 AM 46.9 °F - 17.1 °F 30% 29.95 in 10.0 mi Calm Calm - N/A   Clear
9:53 AM 52.0 °F - 16.0 °F 24% 29.95 in 10.0 mi SW 3.5 mph - N/A   Clear
10:53 AM 61.0 °F - 18.0 °F 19% 29.93 in 10.0 mi West 8.1 mph - N/A   Clear
11:53 AM 66.9 °F - 18.0 °F 15% 29.90 in 10.0 mi West 8.1 mph - N/A   Clear
12:53 PM 70.0 °F - 17.1 °F 13% 29.87 in 10.0 mi West 15.0 mph 21.9 mph N/A   Clear
1:53 PM 73.0 °F - 14.0 °F 11% 29.85 in 10.0 mi WSW 10.4 mph 23.0 mph N/A   Clear
2:53 PM 73.0 °F - 10.0 °F 9% 29.83 in 10.0 mi WSW 17.3 mph 24.2 mph N/A   Clear
3:53 PM 73.9 °F - 7.0 °F 8% 29.82 in 10.0 mi West 19.6 mph 29.9 mph N/A   Clear
4:53 PM 75.0 °F - 1.9 °F 6% 29.82 in 10.0 mi West 18.4 mph 29.9 mph N/A   Clear
5:53 PM 73.0 °F - 5.0 °F 7% 29.83 in 10.0 mi West 20.7 mph 26.5 mph N/A   Clear
6:53 PM 71.1 °F - 7.0 °F 8% 29.85 in 10.0 mi West 13.8 mph - N/A   Clear
7:53 PM 66.0 °F - 10.0 °F 11% 29.85 in 10.0 mi WNW 9.2 mph - N/A   Clear
8:53 PM 59.0 °F - 9.0 °F 14% 29.90 in 10.0 mi NW 6.9 mph - N/A   Clear
9:53 PM 55.9 °F - 10.9 °F 17% 29.90 in 10.0 mi NW 5.8 mph - N/A   Clear
10:53 PM 53.1 °F - 12.0 °F 20% 29.89 in 10.0 mi NW 9.2 mph - N/A   Clear
11:53 PM 48.9 °F - 9.0 °F 20% 29.90 in 10.0 mi SW 9.2 mph - N/A   Clear